Regional Weather Roundup
Issued by NWS

Home | Current Version | Previous Version | Graphics & Text | Print | Product List | Glossary On
Versions: 1 2 3 4 5 6 7 8 9 10 11 12 13 14 15 16 17 18 19 20 21 22 23 24 25 26 27 28 29 30 31 32 33 34 35 36 37 38 39 40 41 42 43 44 45 46 47 48 49 50
000
ASUS44 KMEG 261400
RWRTN
TENNESSEE HOURLY STATE WEATHER ROUNDUP
NATIONAL WEATHER SERVICE MEMPHIS TN
900 AM CDT WED APR 26 2017

TNZ002-004-019-021-049-052-054-088>092-261500-
WEST TENNESSEE

CITY           SKY/WX    TMP DP  RH WIND       PRES   REMARKS
MEMPHIS INTL   MOSUNNY   71  63  75 S18G26    29.64F
NWS MEMPHIS      N/A     70 N/A N/A MISG        N/A
JACKSON        SUNNY     69  61  75 S15       29.67F
DYERSBURG      SUNNY     70  61  73 S13       29.63F
PARIS          MOSUNNY   66  57  72 S12       29.66F
$$

TNZ008-025-027-028-033-062-065-066-261500-
NORTH MIDDLE TENNESSEE

CITY           SKY/WX    TMP DP  RH WIND       PRES   REMARKS
NASHVILLE      MOSUNNY   69  59  70 S12       29.74F
CLARKSVILLE    SUNNY     70  59  68 S8        29.69F
SMYRNA         SUNNY     69  60  73 S9        29.77F
CROSSVILLE     SUNNY     66  55  67 W9        29.85S
$$

TNZ061-075-076-078-094-096-097-261500-
SOUTH MIDDLE TENNESSEE

CITY           SKY/WX    TMP DP  RH WIND       PRES   REMARKS
TULLAHOMA      SUNNY     64  59  82 S6        29.81F
WINCHESTER     SUNNY     70  59  68 VRB5      29.81S
MCMINNVILLE    SUNNY     70  61  73 SW9       29.81S
COLUMBIA       SUNNY     70  70 100 S8        29.73F
SHELBYVILLE    SUNNY     68  63  83 S7        29.80F
$$

TNZ017-018-042-046-047-261500-
NORTHEAST TENNESSEE

CITY           SKY/WX    TMP DP  RH WIND       PRES   REMARKS
TRI CITIES     MOSUNNY   57  56  96 CALM      29.89S FOG
$$

TNZ012-013-036-069-073-074-261500-
CENTRAL EAST TENNESSEE

CITY           SKY/WX    TMP DP  RH WIND       PRES   REMARKS
KNOXVILLE      MOSUNNY   64  56  75 E5        29.84F
OAK RIDGE      MOSUNNY   62  56  80 CALM      29.86S
GATLINBURG     SUNNY     61  55  82 CALM      29.85F
$$

TNZ083-085-099-261500-
SOUTHEAST TENNESSEE

CITY           SKY/WX    TMP DP  RH WIND       PRES   REMARKS
CHATTANOOGA    MOSUNNY   68  58  70 VRB3      29.83F
$$

SKY/WX REPORTED AS FAIR MEANS FEW OR NO CLOUDS BELOW
12 THOUSAND FEET.





USA.gov is the U.S. government's official web portal to all federal, state and local government web resources and services.